Regional Weather Roundup
Issued by NWS

Home | Current Version | Previous Version | Text Only | Print | Product List | Glossary Off
Versions: 1 2 3 4 5 6 7 8 9 10 11 12 13 14 15 16 17 18 19 20 21 22 23 24 25 26 27

000
ASUS43 KDMX 210507
RWRIA

WEATHER ROUNDUP FOR IOWA
NATIONAL WEATHER SERVICE DES MOINES IA
1200 AM CDT MON APR 21 2014

NOTE: "FAIR" INDICATES FEW OR NO CLOUDS BELOW 12,000 FEET WITH NO
SIGNIFICANT WEATHER AND/OR OBSTRUCTIONS TO VISIBILITY.

* - THESE STATIONS ARE NOT NWS STATIONS...THUS NOT UNDER NWS
QUALITY CONTROL.  THEY ALSO DO NOT REPORT WEATHER SUCH
AS PRECIPITATION OR FOG.

IAZ001>003-012>014-020>022-031>034-043>046-210600-
   NORTHWEST IOWA

CITY           SKY/WX    TMP DP  RH WIND       PRES   REMARKS
CARROLL *      CLOUDY    61  55  82 S10       29.96R
CHEROKEE *     RAIN      63  55  77 S7        29.93F
DENISON *      CLOUDY    61  57  88 S10       29.94F
LE MARS *      CLOUDY    63  55  77 S8        29.92S
ORANGE CITY *  PTCLDY    61  54  77 S8        29.92S
SHELDON *      MOCLDY    63  54  72 S12       29.90S
SIOUX CITY     CLOUDY    66  54  65 S12       29.93R
SPENCER        LGT RAIN  62  56  80 S13       29.93S
STORM LAKE *   MOCLDY    63  55  77 SW6       29.95S
$$

IAZ055>058-069>071-079>083-090>094-210600-
   SOUTHWEST IOWA

CITY           SKY/WX    TMP DP  RH WIND       PRES   REMARKS
ATLANTIC *     CLOUDY    61  57  88 SW6       29.96S
AUDUBON *      DRIZZLE   61  54  77 SW6       29.98S
CLARINDA *     CLEAR     59  57  94 CALM      29.99S
COUNCIL BLFS * CLOUDY    61  61 100 S7        29.95F
CRESTON *      CLOUDY    61  55  82 SW5       29.98F
HARLAN  *      CLEAR     59  57  94 SW5       30.00S
LAMONI         CLOUDY    66  53  63 SW9       29.98F
RED OAK *      MOCLDY    59  57  94 S3        29.97F
SHENANDOAH *   CLEAR     59  57  94 SE6       29.98S
$$

IAZ047>049-059>061-072>074-084-210600-
   CENTRAL IOWA

CITY           SKY/WX    TMP DP  RH WIND       PRES   REMARKS
AMES           CLOUDY    64  54  69 W3        29.96R
ANKENY *       CLEAR     68  55  64 W7        29.96S
CHARITON *     CLOUDY    66  52  59 W8        29.99R
DES MOINES     CLOUDY    67  54  63 W6        29.97S
GRINNELL*      MOCLDY    63  48  59 S7        29.98S
KNOXVILLE *    MOCLDY    64  50  59 W7G14     29.98R
MARSHALLTOWN   CLOUDY    66  51  58 SW8       29.96R
NEWTON *       CLEAR     66  50  55 SW10      29.98R
PELLA *        MOCLDY    64  50  59 S6        29.99R
PERRY *        MOCLDY    63  52  67 SW6       29.96S
$$

IAZ004>006-015-016-023>025-035-036-210600-
   NORTH CENTRAL IOWA

CITY           SKY/WX    TMP DP  RH WIND       PRES   REMARKS
ALGONA *       CLOUDY    63  57  82 SW12      29.94S
CLARION *      CLOUDY    61  59  94 CALM      29.97F
ESTHERVILLE    CLOUDY    58  56  93 S8        29.92S
FORT DODGE *   CLOUDY    64  55  72 SE5       29.97R
MASON CITY     TSTM      60  59  96 SE8       30.00R FOG
FOREST CITY *  LGT RAIN  61  59  94 S12       29.95R
IOWA FALLS *   CLOUDY    63  55  77 SW5       29.99R
$$

IAZ007>011-017>019-026>030-037>042-050>054-066-210600-
   NORTHEAST IOWA

CITY           SKY/WX    TMP DP  RH WIND       PRES   REMARKS
CEDAR RAPIDS   PTCLDY    62  48  60 S9        29.97S
CHARLES CITY * LGT RAIN  59  57  94 SE6       30.01R
CLINTON *      CLOUDY    61  46  59 S6        30.03S
DECORAH *      LGT RAIN  59  59 100 SE13      29.97F
DUBUQUE        CLOUDY    61  48  62 SW10      29.98S
MONTICELLO *   PTCLDY    63  50  63 SE5       29.98S
OELWEIN *      CLOUDY   N/A N/A N/A NE6       30.00F
WATERLOO       LGT RAIN  60  56  86 MISG      29.98S
$$

IAZ064-065-067-068-078-210600-
   EAST CENTRAL IOWA

CITY           SKY/WX    TMP DP  RH WIND       PRES   REMARKS
DAVENPORT      CLOUDY    65  47  52 S8        30.00R
IOWA CITY      MOCLDY    63  49  60 S5        29.99S
MT. PLEASANT * PTCLDY    63  48  59 S7        30.00S
MUSCATINE *    CLEAR     66  48  52 SW6       29.99S
QUAD CITIES    CLOUDY    67  46  47 S12       29.99R
$$

IAZ062-063-075>077-085>089-095>099-210600-
   SOUTHEAST IOWA

CITY           SKY/WX    TMP DP  RH WIND       PRES   REMARKS
BURLINGTON     MOCLDY    64  49  57 S6        30.00R
FAIRFIELD *    MOCLDY    64  48  55 S7        30.00R
FORT MADISON * CLEAR     64  50  59 S5        30.02R
KEOKUK *       CLEAR     66  48  52 S3        30.00R
OSKALOOSA *      N/A     61  50  67 S7        29.99S
CENTERVILLE *  MOCLDY    66  54  63 S9        30.01S
OTTUMWA        PTCLDY    64  48  56 SW5       29.98S
WASHINGTON *   CLEAR     63  50  63 S8        29.99S
$$

ABBREVIATIONS USED IN REMARKS
   TC - TEMPERATURES IN CELSIUS
  WCI - WIND CHILL INDEX
   HX - HEAT INDEX
  VSB - VISIBILITY
$$




USA.gov is the U.S. government's official web portal to all federal, state and local government web resources and services.